www.pogodaiklimat.ru

Погода и климат >> Архив погоды >> Индия >> Карнатака >> Карвар


ПОГОДА в Карваре

  • Прогноз погоды в Карваре
  • Монитор погоды в Карваре

АРХИВ ПОГОДЫ в Карваре

Время (UTC), дата Ветер
(напр.,м/с)
 
Видим.   Явления Облачность Т
(С)
Тd
(С)
f
(%)
Тe
(С)
Тes
(С)
Комфортность P
(гПа)
Po
(гПа)
Тmin
(С)
Tmax
(С)
R
(мм)
R24
(мм)
S
(см)
03 14.07 штиль 0 4000 м слаб. дождь 10/5 200 м
[Frnb Ac As]
+26.4 +24.7 90 +37 +39 очень
душно
1009.6 1009.1 +25.9 +30.6 10
06 14.07 штиль 0 4000 м слаб. дождь 10/5 300 м
[Frnb Ac As]
+27.8 +26.4 92 +42 +47 опасность
перегрева
1009.9 1009.4 7
09 14.07 З 2 4000 м {дождь} 10/4 300 м
[Cu Sc As trans Ci sp]
+29.4 +28.3 94 +50 +55 опасность
перегрева
1009.0 1008.5 10
12 14.07 З 2 4000 м слаб. дождь 10/5 300 м
[Frnb As op]
+28.4 +27.3 94 +45 +46 опасность
перегрева
1009.1 1008.6 +29.6 11
03 15.07 штиль 0 2000 м слаб. дождь 10/5 200 м
[Frnb Ac As]
+23.8 +22.3 91 +31 +32 очень
душно
1009.2 1008.7 +22.7 +29.6 130
06 15.07 штиль 0 10 км в посл. час дождь 10/3 300 м
[Frnb As op Ci sp]
+27.4 +26.3 94 +42 +51 опасность
перегрева
1009.4 1008.9 4
09 15.07 штиль 0 10 км 9/3 300 м
[Frnb As op Ci sp]
+28.8 +27.4 92 +46 +55 опасность
перегрева
1008.3 1007.8 4
12 15.07 штиль 0 4000 м слаб. дождь 10/4 300 м
[Frnb As op]
+26.6 +25.7 95 +39 +40 очень
душно
1007.5 1007.0 +29.2 7
03 16.07 ЮЗ 1 10 км 8/3 300 м
[Frnb As op Ci sp]
+26.4 +25.0 92 +38 +41 очень
душно
1008.6 1008.1 +24.1 +29.2 20
06 16.07 Ю 1 10 км {морось} 10/4 300 м
[Frnb As op Ci sp]
+26.0 +24.6 92 +37 +44 очень
душно
1009.1 1008.6 0.0
09 16.07 штиль 0 50 км ?/? +27.2 +25.2 89 +39 +39 очень
душно
1008.4 1007.9 0.0
12 16.07 штиль 0 10 км 8/4 300 м
[Sc diur, vesp As trans Ci sp]
+27.8 +25.8 89 +41 +43 опасность
перегрева
1008.1 1007.6 +28.3 0.0
03 17.07 штиль 0 10 км 8/3 600 м
[Sc diur, vesp Ac trans Ci sp]
+26.0 +24.3 90 +36 +40 очень
душно
1009.4 1008.9 +24.3 +28.3 0.2
06 17.07 штиль 0 10 км 6/3 600 м
[Sc diur, vesp Ac trans Ci sp]
+29.2 +26.4 85 +45 +60 опасность
перегрева
1009.0 1008.5
09 17.07 З 1 10 км 6/3 600 м
[Sc diur, vesp As op Ci sp]
+30.6 +27.0 81 +48 +59 опасность
перегрева
1007.8 1007.3
12 17.07 З 1 10 км 5/3 600 м
[Sc diur, vesp As op Ci fib]
+30.0 +26.9 84 +47 +49 опасность
перегрева
1007.1 1006.6 +31.0
03 18.07 нст 1 10 км 5/3 600 м
[Sc diur, vesp Ac trans Ci fib]
+26.8 +25.4 92 +39 +44 очень
душно
1006.5 1006.0 +24.5 +31.0
06 18.07 штиль 0 10 км 5/3 600 м
[Sc diur, vesp Ci fib]
+30.8 +26.9 80 +48 +67 опасность
перегрева
1006.6 1006.1
09 18.07 СЗ 1 10 км 5/3 600 м
[Sc diur, vesp Ci fib]
+31.6 +27.8 80 +51 +64 опасность
перегрева
1006.3 1005.8
12 18.07 СЗ 2 10 км 8/3 300 м
[Frnb As op Ci sp]
+28.0 +26.0 89 +42 +43 опасность
перегрева
1005.3 1004.8 +31.6
03 19.07 штиль 0 4000 м слаб. дождь 10/5 300 м
[Frnb Ac As]
+25.6 +23.6 89 +35 +36 очень
душно
1005.3 1004.9 +24.7 +31.6 14
06 19.07 штиль 0 4000 м {дождь, морось} 10/4 300 м
[Frnb As op Ci fib]
+26.6 +25.7 95 +39 +48 очень
душно
1005.2 1004.7 2
09 19.07 З 1 4000 м слаб. дождь 10/4 300 м
[Frnb Ac As]
+26.6 +25.5 94 +39 +43 очень
душно
1005.3 1004.8 7
12 19.07 З 1 4000 м {дождь} 10/5 300 м
[Frnb Ac As]
+27.6 +26.5 94 +42 +43 опасность
перегрева
1004.0 1003.5 +28.8 9
03 20.07 штиль 0 10 км 5/3 600 м
[Sc diur, vesp Ac trans Ci fib]
+26.8 +25.1 90 +39 +44 очень
душно
1004.2 1003.7 +25.1 +28.8 11
06 20.07 Ю 1 10 км {дождь} 6/4 300 м
[Sc diur, vesp Ac trans Ci fib]
+28.4 +26.2 88 +43 +55 опасность
перегрева
1004.5 1004.0 0.4
09 20.07 ЮЗ 1 10 км {дождь} 6/4 300 м
[Sc diur, vesp Ac trans Ci sp]
+28.6 +26.9 91 +45 +56 опасность
перегрева
1003.7 1003.2 1
12 20.07 ЮЗ 1 4000 м слаб. морось {дождь} 10/5 300 м
[Frnb As op Ci fib]
+27.2 +26.1 94 +41 +42 опасность
перегрева
1002.6 1002.1 +28.8 3

 

Местоположение метеостанции Карвар (Карнатака, Индия): широта 14.78 долгота 74.13 высота над уровнем моря 4 м.

В архиве по умолчанию представлена погода в Карваре за последнюю неделю. Архивные данные за месяц целиком и за предыдущие месяцы, начиная с января 2011 года, Вы можете получить, выбрав интересующий диапазон дат из раскрывающегося списка и нажав кнопку "Ввод!".


*Определитесь, кто Вы:
робот инопланетянин человек

Внимание! Время в таблицах - всемирное. Для получения местного времени необходимо прибавить поправку, которая равна 5.5 ч.

Смотрите также архив погоды в соседних городах и на ближайших метеорологических станциях:

Погода в Хоннаваре (Карнатака, Индия) (65 км)
Погода в Мормугао (Гоа, Индия) (80 км)
Погода в Панаджи (Гоа, Индия) (85 км)
Погода в Ширали (Карнатака, Индия) (90 км)
Погода в Дхарваде (Карнатака, Индия) (120 км)
Погода в Белгауме (Карнатака, Индия) (127 км)
Погода в Белгаум аэропорту (Карнатака, Индия) (130 км)
Погода в Венгерле (Махараштра, Индия) (133 км)
Погода в Хавери (Карнатака, Индия) (137 км)
Погода на Агамбе (Карнатака, Индия) (175 км)

Пояснения к столбцам:

Ветер - указаны скорость ветра в м/с - средняя за 10 мин, порывы в срок и между сроками (в фигурных скобках) и направление, откуда дует ветер: С - северный, СВ - северо-восточный, В - восточный, ЮВ - юго-восточный, Ю - южный, ЮЗ - юго-западный, З - западный, СЗ - северо-западный.
Видимость - горизонтальная дальность видимости в метрах или километрах. При видимости от 1 до 10 км при отсутствии осадков обычно наблюдается дымка, при ухудшении видимости до 1 км и менее - туман. В сухую погоду видимость может ухудшаться дымом, пылью или мглою.
Явления - указаны атмосферные явления, наблюдавшиеся в срок или в последний час перед сроком; фигурными скобками обозначены явления, наблюдавшиеся между сроками (за 1-3 часа до срока); квадратными скобками обозначены град или гололедные отложения с указанием их диаметра в мм.
Облачность - указаны через наклонную черту общая и нижняя облачность в баллах и высота нижней границы облаков в метрах; квадратными скобками обозначены формы облаков: Ci - перистые, Cs - перисто-слоистые, Cc - перисто-кучевые, Ac - высококучевые, As - высокослоистые, Sc - слоисто-кучевые, Ns - слоисто-дождевые, Cu - кучевые, Cb - кучево-дождевые. Подробнее классификацию облаков см. в Атласе облаков (PDF).
T - Температура воздуха - температура, измеренная на высоте 2 м над землей.
Td - Температура точки росы - температура, при понижении до которой содержащийся в воздухе водяной пар достигнет насыщения.
f - Относительная влажность воздуха - влажноcть воздуха, измеренная на высоте 2 м над землей.
Te - Эффективная температура - температура, которую ощущает одетый по сезону человек в тени. Характеристика душности погоды. При расчете учитывается влияние влажности воздуха и скорости ветра на теплоощущения человека.
Tes - Эффективная температура на солнце - температура, которую ощущает человек, с поправкой на солнечный нагрев. Характеристика знойности погоды. Зависит от высоты солнца над горизонтом, облачности и скорости ветра. Ночью, в пасмурную погоду, а также при ветре 12 м/с и более поправка равна нулю.
P - Атмосферное давление - приведенное к уровню моря атмосферное давление.
Po - Атмосферное давление - измеренное на уровне метеостанции атмосферное давление.
Tmin - Минимальная температура - минимум температуры воздуха на высоте 2 м над землей.
Tmax - Максимальная температура - максимум температуры воздуха на высоте 2 м над землей.
R - Количество осадков - Количество выпавших осадков за период времени, мм. При наведении курсора мыши на число - период времени, за который выпало указанное количество осадков.
R24 - Количество осадков - Количество выпавших осадков за 24 часа, мм.
S - Снежный покров - Высота снежного покрова, см. При наведении курсора мыши на число - состояние снежного покрова и степень покрытия местности в баллах.